[[{"header":{"parameterUnit":"m.s-1","parameterCategory":1,"la1":30.2991,"la2":30.254,"lo1":-89.0895,"lo2":-89.0444,"dy":0.0017,"dx":0.0017,"nx":28,"ny":28,"refTime":"2025-01-27T03:00:00:Z","depth":0,"parameterNumber":2,"parameterNumberName":"U-component_of_WINDS"},"data":[0,0,0,0,0,0,0,0,0,0,0,0,0,0,0,0,0,0,0,0,0,0,0,0,0,0,0,0,0,0,0,0,0,0,0,0,0,0,0,0,0,0,0,0,0,0,0,0,0,0,0,0,0,0,0,0,0,0,2.036,2.0361,0,2.0455,2.0456,2.0457,2.0441,2.044,2.0438,2.0436,2.0536,2.054,2.0544,0,0,0,0,0,0,0,0,0,0,0,0,0,2.0166,2.017,2.036,2.0361,2.0362,2.0455,2.0456,2.0458,2.0442,2.044,2.0438,2.0436,2.0535,2.054,2.0545,0,0,0,0,0,0,0,0,0,0,0,0,0,2.0255,2.0171,2.036,2.0365,2.0367,2.0455,2.0456,2.0458,2.0442,2.044,2.0437,2.0435,2.0533,2.0539,2.0546,2.0634,0,0,2.0565,2.0568,0,0,0,0,0,0,0,0,2.025,2.0262,2.0363,2.0365,2.0367,2.0434,2.0425,2.0517,2.0443,2.0414,2.0436,2.0434,2.0504,2.0513,2.0536,2.0639,2.0643,2.0565,2.0569,2.0572,2.0574,0,0,0,0,0,0,0,2.0244,2.0258,2.0398,2.0365,2.0367,2.0364,2.0374,2.0442,2.0472,2.0416,2.0415,2.0426,2.0505,2.053,2.0538,2.0645,2.0565,2.0571,2.0575,2.0577,2.0826,2.0828,0,0,0,0,0,0,2.0235,2.0253,2.0395,2.0401,2.0301,2.0369,2.038,2.0415,2.0471,2.0477,2.0428,2.0425,2.0521,2.0531,2.0542,2.065,2.0572,2.0578,2.0581,2.0823,2.0826,2.0829,0,0,0,0,0,0,2.0231,2.0248,2.0391,2.0326,2.0344,2.0375,2.0414,2.0418,2.0443,2.048,2.0486,2.0449,2.0519,2.0533,2.0611,2.0653,2.0581,2.0586,2.082,2.0824,2.0828,2.0866,0,0,0,0,0,0,2.0226,2.0247,2.028,2.0327,2.0348,2.0458,2.0417,2.0422,2.0454,2.0451,2.0501,2.0507,2.0518,2.0602,2.0618,2.066,2.0591,2.0816,2.0822,2.0827,2.0861,2.0871,2.0879,0,0,0,0,0,2.0219,2.0288,2.0282,2.0299,2.039,2.0461,2.0472,2.0483,2.0458,2.0492,2.0516,2.0505,2.0646,2.061,2.0628,2.0673,2.0814,2.082,2.0826,2.0857,2.0869,2.0879,0,0,0,0,0,0,2.0245,2.0294,2.0288,2.0374,2.0413,2.0458,2.0501,2.0496,2.0544,2.0539,2.0551,2.0562,2.0642,2.0665,2.0625,2.0762,2.0726,2.0736,2.0744,2.0756,2.0764,2.0757,2.0596,0,0,0,0,0,2.0261,2.0314,2.0353,2.0425,2.0445,2.047,2.0501,2.0506,2.0547,2.0564,2.0594,2.0635,2.0688,2.0723,2.0774,2.0865,2.0876,2.0904,2.0913,2.0921,2.0929,2.0979,2.0992,2.085,2.085,2.085,0,0,2.0294,2.0327,2.036,2.0432,2.0462,2.0517,2.0484,2.0543,2.0584,2.0573,2.0649,2.0672,2.0719,2.0804,2.0842,2.0826,2.0971,2.0929,2.0934,2.0939,2.0987,2.1,2.1012,2.0855,2.0854,2.0853,0,0,2.0383,2.0413,2.0476,2.0508,2.0555,2.0571,2.0586,2.0632,2.0647,2.0723,2.0716,2.0765,2.0857,2.089,2.0919,2.1021,2.1013,2.1038,2.1085,2.1134,2.1145,2.1155,2.1191,2.1204,2.1046,2.1046,2.1046,0,2.0418,2.0499,2.0509,2.057,2.0601,2.0594,2.0658,2.0689,2.0751,2.0773,2.0753,2.0868,2.0899,2.0992,2.1017,2.1041,2.1059,2.1032,2.1142,2.1152,2.1162,2.1197,2.121,2.1049,2.1048,2.1048,2.1048,0,2.0541,2.0598,2.0643,2.0702,2.074,2.0802,2.0822,2.0858,2.086,2.0879,2.0957,2.0993,2.1052,2.1074,2.1077,2.1168,2.1156,2.1139,2.1103,2.1178,2.1211,2.1224,2.1053,2.1052,2.1051,2.105,0,0,2.0648,2.0712,2.0729,2.0756,2.0807,2.0852,2.0914,2.0971,2.1002,2.1045,2.1098,2.1176,2.116,2.1193,2.12,2.1243,2.1321,2.1221,2.1222,2.1238,2.1423,2.1435,2.1451,2.1316,2.1319,2.1321,2.1419,0,2.0741,2.085,2.0861,2.0958,2.1011,2.1005,2.1059,2.1097,2.1116,2.1164,2.1186,2.1241,2.1216,2.1236,2.1278,2.1302,2.1358,2.1296,2.1366,2.1368,2.1354,2.1468,2.1481,2.1572,2.1432,2.1434,2.1436,0,2.0864,2.091,2.1013,2.1057,2.108,2.1128,2.1182,2.1227,2.1271,2.1282,2.1319,2.132,2.1385,2.1347,2.1436,2.1393,2.1423,2.1439,2.1443,2.145,2.1406,2.1478,2.1601,2.1615,2.1456,2.1455,2.1453,0,2.0932,2.102,2.1092,2.1116,2.117,2.1204,2.1228,2.1269,2.1303,2.1349,2.1371,2.1425,2.1455,2.1497,2.1513,2.1484,2.1602,2.1565,2.1613,2.1613,2.1638,2.1636,2.1768,2.1657,2.1657,2.1657,2.1657,0,2.1034,2.1097,2.1124,2.1168,2.1239,2.1252,2.1322,2.1344,2.1381,2.143,2.1429,2.1476,2.1494,2.1544,2.1557,2.1629,2.1643,2.1654,2.1656,2.1654,2.1652,2.1673,2.1667,2.1661,2.166,2.1659,2.1658,0,2.1122,2.1142,2.1221,2.1265,2.1278,2.1328,2.1367,2.1411,2.1429,2.1492,2.1508,2.1537,2.1596,2.1616,2.1687,2.1696,2.178,2.1778,2.1765,2.1766,2.1813,2.1808,2.1962,2.1983,2.1859,2.186,2.1861,0,2.1185,2.1234,2.1284,2.1317,2.1342,2.1395,2.1429,2.1444,2.148,2.1533,2.1571,2.1629,2.1676,2.177,2.1798,2.1853,2.1852,2.1902,2.186,2.1856,2.1852,2.1849,2.1854,2.191,2.1911,2.1912,2.1913,0,2.1297,2.1305,2.1354,2.1407,2.1448,2.149,2.1531,2.1558,2.1579,2.162,2.168,2.1716,2.1789,2.1847,2.1903,2.1929,2.1925,2.1926,2.194,2.1938,2.1929,2.1934,2.1787,2.1922,2.1921,2.1921,2.192,2.192,2.1374,2.1417,2.1459,2.1514,2.1547,2.1585,2.1629,2.1653,2.1703,2.1762,2.1768,2.1833,2.1876,2.195,2.1979,2.203,2.2016,2.2036,2.2041,2.2046,2.205,2.1921,2.204,2.204,2.204,2.2039,2.2039,0,2.1486,2.1512,2.1563,2.162,2.1664,2.1656,2.1702,2.1738,2.1795,2.1835,2.1882,2.1951,2.2007,2.204,2.2096,2.2131,2.2131,2.2145,2.2143,2.2149,2.2059,2.2041,2.2145,2.2145,2.2145,2.2145,2.2145,2.2144,2.1549,2.1621,2.1633,2.1722,2.1749,2.1811,2.1838,2.1874,2.1906,2.1983,2.2029,2.205,2.2088,2.2147,2.2198,2.2207,2.2228,2.2244,2.2251,2.2166,2.2155,2.2145,2.2128,2.2248,2.2248,2.2336,2.2337,2.2338]},{"header":{"parameterUnit":"m.s-1","parameterCategory":1,"la1":30.2991,"la2":30.254,"lo1":-89.0895,"lo2":-89.0444,"dy":0.0017,"dx":0.0017,"nx":28,"ny":28,"refTime":"2025-01-27T03:00:00:Z","depth":0,"parameterNumber":3,"parameterNumberName":"V-component_of_WINDS"},"data":[0,0,0,0,0,0,0,0,0,0,0,0,0,0,0,0,0,0,0,0,0,0,0,0,0,0,0,0,0,0,0,0,0,0,0,0,0,0,0,0,0,0,0,0,0,0,0,0,0,0,0,0,0,0,0,0,0,0,0.3328,0.3331,0,0.3641,0.3644,0.3648,0.3683,0.368,0.3677,0.3674,0.4007,0.4019,0.403,0,0,0,0,0,0,0,0,0,0,0,0,0,0.2774,0.2784,0.3328,0.3332,0.3336,0.364,0.3644,0.3649,0.3684,0.368,0.3676,0.3672,0.4003,0.4017,0.4032,0,0,0,0,0,0,0,0,0,0,0,0,0,0.3044,0.2787,0.3327,0.3389,0.3398,0.3639,0.3644,0.365,0.3685,0.368,0.3675,0.3671,0.3999,0.4016,0.4034,0.4238,0,0,0.4088,0.4095,0,0,0,0,0,0,0,0,0.3028,0.3064,0.3376,0.3386,0.3396,0.3618,0.3571,0.3848,0.3686,0.3576,0.3674,0.3668,0.3882,0.3909,0.3979,0.4254,0.4268,0.4089,0.41,0.4108,0.4113,0,0,0,0,0,0,0,0.301,0.3051,0.3452,0.3381,0.3393,0.3406,0.3439,0.3624,0.3753,0.3585,0.3589,0.3625,0.3887,0.3962,0.3987,0.4273,0.4089,0.4105,0.4115,0.4122,0.4734,0.474,0,0,0,0,0,0,0.2977,0.3035,0.3442,0.3461,0.3196,0.342,0.3457,0.3552,0.3751,0.3776,0.3628,0.3625,0.3934,0.3966,0.3999,0.4254,0.4108,0.4124,0.4134,0.4729,0.4736,0.4742,0,0,0,0,0,0,0.2965,0.3013,0.3429,0.3249,0.3303,0.3434,0.3541,0.356,0.3635,0.3783,0.3807,0.368,0.3931,0.3974,0.4178,0.4266,0.4132,0.4148,0.4722,0.4731,0.4739,0.4764,0,0,0,0,0,0,0.2949,0.3009,0.3085,0.325,0.3312,0.36,0.3546,0.357,0.3664,0.3663,0.3838,0.3863,0.3931,0.4151,0.4196,0.4288,0.4162,0.4715,0.4726,0.4736,0.4756,0.4772,0.4786,0,0,0,0,0,0.2929,0.3082,0.3088,0.3137,0.3409,0.3604,0.364,0.3712,0.3671,0.3751,0.3846,0.3857,0.4248,0.4172,0.4222,0.4321,0.471,0.4723,0.4735,0.4749,0.4769,0.4785,0,0,0,0,0,0,0.2928,0.3105,0.3114,0.3323,0.3448,0.361,0.3713,0.373,0.3873,0.3866,0.3953,0.3992,0.4194,0.4278,0.4189,0.4531,0.4476,0.4499,0.4469,0.4489,0.4504,0.4481,0.4177,0,0,0,0,0,0.2951,0.309,0.3239,0.341,0.3471,0.3581,0.3668,0.3712,0.3847,0.3901,0.4011,0.4145,0.4298,0.4398,0.4547,0.4767,0.4808,0.486,0.4875,0.4886,0.4907,0.5033,0.5059,0.4783,0.4783,0.4783,0,0,0.3002,0.3116,0.3199,0.3412,0.3514,0.3661,0.3625,0.3782,0.3893,0.3926,0.4125,0.4211,0.4366,0.4579,0.4679,0.4656,0.4992,0.4902,0.4911,0.4925,0.5049,0.5075,0.5098,0.4792,0.479,0.4789,0,0,0.3171,0.3268,0.3422,0.3524,0.3677,0.3749,0.3786,0.3945,0.4002,0.4202,0.4231,0.4366,0.4627,0.4737,0.4828,0.5037,0.5055,0.5083,0.5164,0.5286,0.5307,0.5327,0.5406,0.5432,0.5102,0.5102,0.5103,0,0.3216,0.3434,0.3501,0.3656,0.3751,0.3783,0.3942,0.4039,0.4235,0.4302,0.4271,0.46,0.4707,0.4948,0.4998,0.5069,0.5118,0.5066,0.5298,0.5318,0.5338,0.5414,0.5443,0.5105,0.5105,0.5105,0.5104,0,0.3484,0.3635,0.3742,0.3925,0.4032,0.4189,0.4283,0.4384,0.4418,0.4494,0.47,0.4828,0.5005,0.5064,0.5101,0.5312,0.5293,0.5279,0.5226,0.5366,0.5439,0.5468,0.5109,0.5108,0.5107,0.5107,0,0,0.3664,0.388,0.3919,0.4003,0.4174,0.4294,0.4454,0.4622,0.4708,0.4842,0.4981,0.5201,0.5189,0.5291,0.5341,0.5447,0.5609,0.5421,0.5426,0.5455,0.5854,0.5866,0.5898,0.562,0.5625,0.563,0.5842,0,0.3854,0.4135,0.4199,0.4443,0.4585,0.4617,0.4757,0.4879,0.4955,0.509,0.5175,0.5331,0.5301,0.5364,0.547,0.5566,0.5691,0.5552,0.5756,0.5762,0.5719,0.5936,0.595,0.6144,0.5871,0.5876,0.5879,0,0.4115,0.425,0.4506,0.4659,0.4721,0.4845,0.5006,0.5133,0.5274,0.5322,0.5435,0.5473,0.5645,0.558,0.5821,0.5724,0.5812,0.5872,0.5881,0.5907,0.5832,0.5972,0.6207,0.6238,0.5924,0.5921,0.5917,0,0.4224,0.4471,0.4656,0.4727,0.4909,0.4996,0.5077,0.5212,0.531,0.5451,0.5517,0.5677,0.5767,0.5892,0.5975,0.5919,0.6211,0.6152,0.626,0.6258,0.6324,0.6319,0.6581,0.6373,0.6372,0.6372,0.6371,0,0.4433,0.459,0.4708,0.4823,0.5,0.5074,0.5249,0.5331,0.5451,0.5586,0.5624,0.575,0.5849,0.5991,0.6057,0.6249,0.6288,0.6335,0.6352,0.6335,0.6329,0.6396,0.6386,0.6379,0.6378,0.6376,0.6375,0,0.4587,0.4672,0.4877,0.5031,0.5074,0.5198,0.5333,0.5448,0.5522,0.5693,0.5737,0.5857,0.6026,0.6119,0.6331,0.6376,0.6591,0.6599,0.6543,0.6551,0.6655,0.6646,0.6973,0.7021,0.6776,0.6778,0.678,0,0.4717,0.4837,0.5003,0.5094,0.5175,0.532,0.5419,0.5497,0.56,0.5769,0.5865,0.6034,0.6174,0.6443,0.6552,0.6716,0.673,0.6833,0.6756,0.6735,0.6737,0.673,0.6745,0.6848,0.6851,0.6852,0.6854,0,0.4939,0.4975,0.5113,0.5267,0.5383,0.5509,0.5634,0.5707,0.5807,0.5921,0.6091,0.6199,0.6414,0.6584,0.6756,0.6844,0.6869,0.6876,0.6911,0.6897,0.6861,0.6886,0.6584,0.687,0.6868,0.6867,0.6866,0.6866,0.5088,0.5197,0.5331,0.5485,0.5586,0.5702,0.5818,0.5906,0.6048,0.6227,0.6265,0.6446,0.6586,0.6819,0.6911,0.7057,0.7039,0.7087,0.7101,0.7113,0.7119,0.6833,0.7089,0.7088,0.7088,0.7088,0.7087,0,0.5316,0.5402,0.5543,0.5715,0.5837,0.5841,0.5981,0.6084,0.6241,0.6367,0.6503,0.6701,0.6866,0.6986,0.7156,0.725,0.7265,0.7292,0.7289,0.7309,0.7124,0.7079,0.7277,0.7277,0.7277,0.7277,0.7277,0.7277,0.5449,0.5635,0.5686,0.5925,0.6012,0.6186,0.6266,0.6375,0.6476,0.6693,0.6828,0.6904,0.703,0.7208,0.7361,0.7393,0.7456,0.7482,0.7516,0.7342,0.7322,0.7303,0.7261,0.7494,0.7494,0.769,0.7692,0.7693]}]]